Regional Weather Roundup
Issued by NWS Sterling, VA

Home | Current Version | Previous Version | Graphics & Text | Print | Product List | Glossary On
Versions: 1 2 3 4 5 6 7 8 9 10 11 12 13 14 15 16 17 18 19 20 21 22 23 24 25 26 27 28 29 30 31 32 33 34 35 36 37 38 39 40 41 42 43 44 45 46 47 48 49 50
000
ASUS41 KLWX 271210
RWRLWX

REGIONAL WEATHER ROUNDUP
NATIONAL WEATHER SERVICE BALTIMORE MD/WASHINGTON DC
700 AM EST TUE JAN 27 2015

Note: "FAIR" indicates few or no clouds below 12,000 feet
with no significant weather and/or obstructions to visibility.
 TC=TEMPERATURE CELSIUS

 * =Non NWS site. Station does not report precipitation (e.g. rain,
    snow, etc.), thunder, or fog.

DCZ001-MDZ009-015-VAZ040>042-051-053>054-271300-
WASHINGTON METRO

CITY           SKY/WX    TMP DP  RH WIND       PRES   REMARKS
WASHINGTON NAT CLOUDY    31  22  69 N14       29.79R WCI  21
DULLES         LGT SNOW  27  21  78 NW14G23   29.79R WCI  16
ANDREWS AFB    MIX PCPN  28  25  86 N12       29.76R WCI  18
FT BELVOIR     MIX PCPN  29  22  72 NW12G18   29.79R WCI  20
QUANTICO       LGT SNOW  30  23  75 N17G25    29.81R WCI  18
COLLEGE PARK*  CLOUDY    30  27  86 N9        29.78R WCI  22
LEESBURG*      LGT SNOW  28  27  93 N15G21    29.80R WCI  17
GAITHERSBURG*  CLOUDY    27  19  74 NW3       29.80R

$$

MDZ006>007-011-014-271300-
BALTIMORE METRO

CITY           SKY/WX    TMP DP  RH WIND       PRES   REMARKS
BWI AIRPORT    FLURRIES  28  22  78 N9        29.76R WCI  19
MD SCIENCE CTR   N/A     28  22  78 MISG      29.77R
MARTIN STATE   FLURRIES  30  25  80 NW8       29.78R WCI  23
ANNAPOLIS      CLOUDY    30  24  78 N13       29.76R WCI  20
FORT MEADE*    CLOUDY    28  27  93 NE8       29.80R WCI  20

$$

MDZ012-015-019>023-271300-
MARYLAND EASTERN SHORE

CITY           SKY/WX    TMP DP  RH WIND       PRES   REMARKS
OCEAN CITY     CLOUDY    28  22  78 N17       29.68R WCI  16
SALISBURY      CLOUDY    30  22  72 N13G22    29.71R WCI  20
BAY BRIDGE AP*   N/A     32  21  64 N16G23    29.76S WCI  21
CAMBRIDGE*     CLOUDY    32  25  74 N14G21    29.73R WCI  22

$$

MDZ017>025-271300-
SOUTHERN MARYLAND

CITY           SKY/WX    TMP DP  RH WIND       PRES   REMARKS
PATUXENT RIVER LGT SNOW  29  24  82 NW16      29.74R WCI  17
ST INIGOES     CLOUDY    30  22  72 N9G20     29.74R WCI  22
LEONARDTOWN*   CLOUDY    28  27  93 MISG        N/A

$$

MDZ003>005-271300-
NORTH CENTRAL MARYLAND

CITY           SKY/WX    TMP DP  RH WIND       PRES   REMARKS
FREDERICK*     CLOUDY    30  19  64 E6        29.82R
HAGERSTOWN APT LGT SNOW  25  20  81 NW13      29.79R WCI  14
WESTMINSTER*   CLOUDY    25  23  93 N7        29.75R

$$

MDZ501>502-271300-
WESTERN MARYLAND

CITY           SKY/WX    TMP DP  RH WIND       PRES   REMARKS
OAKLAND*       CLOUDY    14 N/A N/A NW3       29.71R FOG
CUMBERLAND*    MOCLDY    27  19  74 CALM      29.88R

$$

VAZ025>031-271300-
SHENANDOAH VALLEY

CITY           SKY/WX    TMP DP  RH WIND       PRES   REMARKS
WINCHESTER*    LGT SNOW  28  23  80 N7        29.80R
FRONT ROYAL*   CLOUDY    28  27  93 N5        29.79R
LURAY*         FLURRIES  30  30 100 CALM      29.78R
NEW MARKET*    CLOUDY    24  23  96 CALM      29.78R
STAUNTON*      CLOUDY    26  23  86 N5        29.78R
WAYNESBORO*    CLOUDY    26  23  91 NW5       29.74R

$$

WVZ021-048>050-054>055-271300-
EASTERN WEST VIRGINIA PANHANDLE

CITY           SKY/WX    TMP DP  RH WIND       PRES   REMARKS
MARTINSBURG    LGT SNOW  27  21  78 NW9       29.82R WCI  18
PETERSBURG*    FAIR      18  17  95 CALM      29.82R

$$

VAZ036>039-050-271300-
CENTRAL FOOTHILLS

CITY           SKY/WX    TMP DP  RH WIND       PRES   REMARKS
CHARLOTTESVILL MOCLDY    31  21  66 NW6       29.75R
CULPEPER*      CLOUDY    30  25  80 N9G17     29.78R WCI  22
ORANGE*        LGT SNOW  30  28  93 N5        29.78R
GORDONSVILLE*  FOG       28  26  96 CALM      29.77R VSB 1
WARRENTON*     CLOUDY    31  27  87 N13G23    29.77R WCI  21

$$

VAZ055>057-271300-
NORTH AND CENTRAL PIEDMONT

CITY           SKY/WX    TMP DP  RH WIND       PRES   REMARKS
FREDERICKSBRG* LGT SNOW  31  26  83 N7G20     29.79R
STAFFORD*      CLOUDY    29  28  98 CALM      29.82R

$$

NCZ024-NYZ072-PAZ021-071-VAZ022-071-271300-
OTHER REGIONAL OBSERVATIONS

CITY           SKY/WX    TMP DP  RH WIND       PRES   REMARKS
NEW YORK CITY  CLOUDY    22  12  65 MISG      29.68R
PHILADELPHIA   FLURRIES  26  21  81 N14       29.73S WCI  14
PITTSBURGH     FLURRIES  19  15  84 NW9       29.87R WCI   8
ROANOKE        CLEAR     22  10  60 W7        29.82R
RICHMOND       LGT SNOW  30  25  81 N13       29.77R FOG     WCI  20
RALEIGH        CLOUDY    34  24  67 NW5       29.78R

$$

ANZ530>537-271300-
MARINE OBSERVATIONS

STATION/POSITION TIME  TEMP    WIND        PRES
                       AIR SEA DIR/SP/G
                 (UTC) (F)     (DEG/KT/KT) (MB)
THOMAS PT LIGHT  1200   30 36  360/ 17/ 20 1008.5R
BALT KEY BRIDGE  1200   29     330/ 12/ 13 1007.8S
COVE POINT       1200   28     360/ 23/ 28 1006.7R
LEWISETTA        1200   30 38  350/ 13/ 18 1007.3R
SOLOMONS ISLAND  1200      38                N/A
PINEY POINT      1200          360/ 15/ 18   N/A

$$



USA.gov is the U.S. government's official web portal to all federal, state and local government web resources and services.